Charlevoix, MI

7:59 AM EDT on September 26, 2017 (GMT -0400)
Charlevoix Municipal

Weather History for KCVX - January, 2012

Change the Weather History Date:

Saturday, January 28, 2012

  Actual Average Record
Temperature  
Mean Temperature 30 °F -  
Max Temperature 34 °F 30 °F 42 °F (2008)
Min Temperature 26 °F 10 °F 2 °F (2015)
Degree Days  
Heating Degree Days 35    
Moisture  
Dew Point 26 °F    
Average Humidity 86    
Maximum Humidity 99    
Minimum Humidity 68    
Precipitation  
Precipitation 0.00 in - - ()
Sea Level Pressure  
Sea Level Pressure 29.69 in    
Wind  
Wind Speed 12 mph (WSW)    
Max Wind Speed 29 mph    
Max Gust Speed 39 mph    
Visibility 5 miles    
Events Snow    
Averages and records for this station are not official NWS values.
T = Trace of Precipitation, MM = Missing Value Source: NWS Daily Summary

Daily Weather History Graph

Daily Weather History Graph

Search for Another Location

Airport or City:

Trip Planner

Search our weather history database for the weather conditions in past years. The results will help you decide how hot, cold, wet, or windy it might be!

Date:

Astronomy

Jan. 28, 2012 Rise Set
Actual Time 8:06 AM EST 5:41 PM EST
Civil Twilight 7:34 AM EST 6:13 PM EST
Nautical Twilight 6:59 AM EST 6:49 PM EST
Astronomical Twilight 6:24 AM EST 7:24 PM EST
Moon 10:09 AM EST (1/28) 11:50 PM EST (1/28)
Length of Visible Light 10h 38m
Length of Day
9h 35m
Waxing Crescent, 27% of the Moon is Illuminated
Jan 28
Waxing Crescent
Jan 30
First Quarter
Feb 7
Full
Feb 14
Last Quarter
Feb 21
New

Hourly Weather History & Observations

Time (EST) Temp. Windchill Dew Point Humidity Pressure Visibility Wind Dir Wind Speed Gust Speed Precip Events Conditions
12:14 AM 34.3 °F 27.7 °F 24.8 °F 68% 29.77 in 10.0 mi SSW 8.1 mph - N/A   Overcast
12:34 AM 34.3 °F 27.7 °F 25.7 °F 71% 29.76 in 10.0 mi SSW 8.1 mph - N/A   Overcast
12:54 AM 34.3 °F 24.6 °F 26.6 °F 73% 29.75 in 10.0 mi SSW 15.0 mph - N/A   Overcast
1:14 AM 33.4 °F 25.9 °F 28.4 °F 82% 29.74 in 5.0 mi SSW 9.2 mph 16.1 mph N/A Snow Light Snow
1:34 AM 32.5 °F 24.2 °F 29.7 °F 89% 29.74 in 3.0 mi SSW 10.4 mph 17.3 mph N/A Snow Light Snow
1:54 AM 32.2 °F 26.7 °F 30.9 °F 95% 29.72 in 2.0 mi South 5.8 mph - N/A Snow Light Snow
2:14 AM 32.4 °F 26.0 °F 31.8 °F 98% 29.72 in 1.2 mi SSW 6.9 mph - N/A Snow Light Snow
2:35 AM 32.4 °F 24.6 °F 32.0 °F 99% 29.71 in 1.8 mi South 9.2 mph - N/A Snow Light Snow
2:54 AM 32.2 °F 24.4 °F 31.8 °F 99% 29.70 in 1.2 mi South 9.2 mph - N/A Snow Light Snow
3:14 AM 32.2 °F 25.8 °F 31.6 °F 98% 29.69 in 2.5 mi South 6.9 mph - N/A Snow Light Snow
3:35 AM 32.0 °F 25.6 °F 31.1 °F 96% 29.68 in 1.8 mi South 6.9 mph - N/A Snow Light Snow
3:54 AM 32.0 °F 25.6 °F 31.5 °F 98% 29.67 in 3.0 mi South 6.9 mph - N/A Snow Light Snow
4:14 AM 32.4 °F 25.3 °F 31.8 °F 98% 29.66 in 1.8 mi South 8.1 mph - N/A Snow Light Snow
4:35 AM 32.4 °F 25.3 °F 32.0 °F 99% 29.65 in 1.8 mi SSW 8.1 mph - N/A Snow Light Snow
4:54 AM 32.4 °F 26.9 °F 32.0 °F 99% 29.64 in 1.5 mi SSW 5.8 mph - N/A Snow Light Snow
5:14 AM 32.0 °F 25.6 °F 31.6 °F 99% 29.62 in 1.5 mi South 6.9 mph - N/A Snow Light Snow
5:34 AM 32.0 °F 25.6 °F 31.5 °F 98% 29.62 in 1.8 mi South 6.9 mph - N/A Snow Light Snow
5:54 AM 32.0 °F 26.4 °F 31.3 °F 97% 29.61 in 1.8 mi South 5.8 mph - N/A Snow Light Snow
6:14 AM 32.0 °F 25.6 °F 31.3 °F 97% 29.60 in 2.0 mi South 6.9 mph - N/A Snow Light Snow
6:34 AM 32.0 °F 27.5 °F 31.6 °F 99% 29.60 in 1.2 mi West 4.6 mph - N/A Snow Snow
6:54 AM 32.0 °F 24.8 °F 31.5 °F 98% 29.61 in 1.0 mi NNW 8.1 mph - N/A Snow Snow
7:14 AM 31.8 °F 22.8 °F 31.1 °F 97% 29.61 in 1.2 mi NNW 11.5 mph 18.4 mph N/A Snow Light Snow
7:34 AM 30.9 °F 21.7 °F 30.0 °F 96% 29.61 in 1.2 mi NNW 11.5 mph 21.9 mph N/A Snow Light Snow
7:54 AM 30.2 °F 19.8 °F 29.3 °F 96% 29.62 in 1.2 mi NNW 13.8 mph 19.6 mph N/A Snow Light Snow
8:14 AM 29.8 °F 18.9 °F 28.4 °F 94% 29.62 in 0.8 mi NNW 15.0 mph 24.2 mph N/A Snow Light Snow
8:34 AM 29.3 °F 19.1 °F 28.2 °F 96% 29.63 in 0.5 mi NNW 12.7 mph 23.0 mph N/A Snow Snow
8:54 AM 29.8 °F 18.4 °F 28.8 °F 96% 29.63 in 0.8 mi NNW 16.1 mph 20.7 mph N/A Snow Light Snow
9:14 AM 30.0 °F 20.0 °F 27.5 °F 90% 29.64 in 2.0 mi NW 12.7 mph 20.7 mph N/A Snow Light Snow
9:34 AM 30.0 °F 21.1 °F 27.9 °F 92% 29.64 in 1.2 mi NNW 10.4 mph - N/A Snow Light Snow
9:54 AM 30.0 °F 22.4 °F 28.4 °F 94% 29.64 in 2.0 mi NW 8.1 mph - N/A Snow Light Snow
10:14 AM 31.1 °F 19.7 °F 27.5 °F 87% 29.65 in 10.0 mi WNW 17.3 mph 21.9 mph N/A   Overcast
10:34 AM 30.7 °F 19.6 °F 26.2 °F 83% 29.66 in 10.0 mi WNW 16.1 mph 24.2 mph N/A   Overcast
11:14 AM 30.2 °F 19.3 °F 25.2 °F 82% 29.67 in 10.0 mi WNW 15.0 mph - N/A   Mostly Cloudy
11:33 AM 30.2 °F 18.5 °F 25.0 °F 81% 29.68 in 10.0 mi West 17.3 mph 23.0 mph N/A   Mostly Cloudy
11:54 AM 30.2 °F 18.5 °F 24.8 °F 80% 29.68 in 10.0 mi West 17.3 mph - N/A   Mostly Cloudy
12:14 PM 29.7 °F 17.4 °F 24.6 °F 81% 29.68 in 10.0 mi West 18.4 mph - N/A   Overcast
12:35 PM 29.3 °F 17.3 °F 23.5 °F 79% 29.68 in 10.0 mi West 17.3 mph - N/A   Overcast
12:54 PM 29.1 °F 16.7 °F 23.7 °F 80% 29.68 in 10.0 mi West 18.4 mph 23.0 mph N/A   Overcast
1:14 PM 28.4 °F 16.2 °F 22.8 °F 80% 29.69 in 10.0 mi West 17.3 mph 27.6 mph N/A   Overcast
1:35 PM 28.2 °F 14.8 °F 22.1 °F 78% 29.69 in 10.0 mi West 20.7 mph 26.5 mph N/A   Overcast
1:54 PM 27.7 °F 14.5 °F 21.7 °F 78% 29.69 in 10.0 mi West 19.6 mph 28.8 mph N/A   Overcast
2:14 PM 27.3 °F 13.6 °F 21.7 °F 80% 29.70 in 10.0 mi West 20.7 mph 27.6 mph N/A   Overcast
2:34 PM 27.1 °F 13.1 °F 21.0 °F 78% 29.71 in 10.0 mi West 21.9 mph 28.8 mph N/A   Overcast
2:54 PM 27.1 °F 11.8 °F 21.6 °F 80% 29.72 in 7.0 mi West 26.5 mph 32.2 mph N/A   Overcast
3:14 PM 26.8 °F 13.3 °F 21.2 °F 79% 29.73 in 10.0 mi WSW 19.6 mph 27.6 mph N/A   Overcast
3:34 PM 26.6 °F 12.0 °F 20.3 °F 77% 29.74 in 10.0 mi West 23.0 mph 31.1 mph N/A   Overcast
3:54 PM 27.3 °F 14.8 °F 20.5 °F 75% 29.74 in 10.0 mi West 17.3 mph 28.8 mph N/A   Overcast
4:14 PM 27.5 °F 13.9 °F 19.8 °F 73% 29.75 in 10.0 mi West 20.7 mph 26.5 mph N/A   Overcast
4:34 PM 27.9 °F 14.4 °F 19.8 °F 72% 29.76 in 10.0 mi West 20.7 mph 27.6 mph N/A   Overcast
4:54 PM 27.5 °F 13.2 °F 19.9 °F 73% 29.76 in 5.0 mi West 23.0 mph 32.2 mph N/A Snow Light Snow
5:15 PM 27.3 °F 12.7 °F 20.5 °F 75% 29.77 in 2.5 mi West 24.2 mph 31.1 mph N/A Snow Light Snow
5:34 PM 27.0 °F 11.3 °F 21.7 °F 81% 29.78 in 1.0 mi West 27.6 mph 33.4 mph N/A Snow Light Snow
5:54 PM 27.5 °F 11.8 °F 20.1 °F 74% 29.78 in 3.0 mi West 28.8 mph 33.4 mph N/A   Haze
6:14 PM 27.1 °F 12.4 °F 21.0 °F 78% 29.79 in 4.0 mi West 24.2 mph 33.4 mph N/A Snow Light Snow
6:34 PM 27.5 °F 11.8 °F 19.0 °F 71% 29.80 in 3.0 mi West 28.8 mph 36.8 mph N/A Snow Light Snow
6:54 PM 27.5 °F 11.8 °F 20.1 °F 74% 29.81 in 4.0 mi West 28.8 mph 34.5 mph N/A Snow Light Snow
7:14 PM 27.3 °F 11.5 °F 19.0 °F 71% 29.82 in 2.5 mi West 28.8 mph 39.1 mph N/A Snow Light Snow
7:34 PM 26.8 °F 10.5 °F 18.3 °F 70% 29.82 in 3.0 mi West 29.9 mph 36.8 mph N/A Snow Light Snow
7:54 PM 27.3 °F 11.5 °F 19.2 °F 72% 29.84 in 5.0 mi West 28.8 mph 35.7 mph N/A   Haze
8:14 PM 25.9 °F 12.1 °F 20.5 °F 80% 29.84 in 4.0 mi West 19.6 mph 33.4 mph N/A   Haze
8:34 PM 26.4 °F 10.6 °F 18.9 °F 73% 29.84 in 5.0 mi West 27.6 mph 38.0 mph N/A   Haze
8:54 PM 26.4 °F 10.1 °F 16.5 °F 66% 29.85 in 4.0 mi West 29.9 mph 36.8 mph N/A   Haze
9:14 PM 26.6 °F 12.0 °F 16.2 °F 65% 29.85 in 5.0 mi West 23.0 mph 34.5 mph N/A   Haze
9:34 PM 27.0 °F 11.3 °F 17.1 °F 66% 29.84 in 5.0 mi West 27.6 mph 35.7 mph N/A   Haze
9:55 PM 26.8 °F 12.3 °F 16.2 °F 64% 29.85 in 10.0 mi West 23.0 mph 32.2 mph N/A   Overcast
10:14 PM 26.6 °F 12.0 °F 15.3 °F 62% 29.84 in 10.0 mi West 23.0 mph 29.9 mph N/A   Overcast
10:34 PM 26.6 °F 12.7 °F 14.9 °F 61% 29.85 in 10.0 mi WSW 20.7 mph 28.8 mph N/A   Overcast
10:55 PM 27.0 °F 11.9 °F 16.0 °F 63% 29.85 in 10.0 mi WSW 25.3 mph 32.2 mph N/A   Overcast
11:14 PM 26.6 °F 10.8 °F 16.2 °F 65% 29.84 in 7.0 mi West 27.6 mph 33.4 mph N/A   Overcast
11:34 PM 27.1 °F 13.4 °F 16.5 °F 64% 29.84 in 10.0 mi West 20.7 mph 29.9 mph N/A   Overcast
11:54 PM 27.1 °F 12.1 °F 16.5 °F 64% 29.84 in 10.0 mi West 25.3 mph 31.1 mph N/A   Overcast